Volver al catálogo

STARLINK-3320

ActivoComunicacionesVLEO
NORAD 50839·PAYLOAD·🇺🇸 United States

Lanzado Jan 6, 2022 desde Cape Canaveral Space Force Station

Loading…

Próximos Pases (próximas 24 horas)

TLE

ActualizadoSource: CelesTrak SupGP

Época: Sep 14, 2026, 19:56 UTC

1 50839C 22001AN  26257.83104167  .00054324  00000+0  17473-2 0  2570
2 50839  53.1589  36.1547 0001053  80.2522  62.4053 15.31668518    17

Sigue STARLINK-3320 en tiempo real con AllMySat

Download on the App Store